FW5946 Weather Reports


Display with metric or nautical units.
time (UTC)temp
F
wind
direction
speed
MPH
gust
MPH
rain 1hr
in
rain 24hr
in
rain mn
in
humidity
%
barometer
mb
20220706125026 82 244 1.0 3.0 0.00 0.00 0.00 83 992.1
20220706124525 82 168 0.0 4.0 0.00 0.00 0.00 84 992.1
20220706124027 82 132 1.0 4.0 0.00 0.00 0.00 84 992.1
20220706123525 81 225 0.0 4.0 0.00 0.00 0.00 84 992.1
20220706123024 81 140 1.0 3.0 0.00 0.00 0.00 85 992.0
20220706122527 81 138 0.0 2.0 0.00 0.00 0.00 85 992.1
20220706122023 81 138 0.0 3.0 0.00 0.00 0.00 85 991.9
20220706121522 81 138 1.0 5.0 0.00 0.00 0.00 85 991.9
20220706121022 81 123 0.0 4.0 0.00 0.00 0.00 85 991.9
20220706120522 81 148 0.0 3.0 0.00 0.00 0.00 85 991.9
20220706120021 80 148 0.0 3.0 0.00 0.00 0.00 86 991.9
20220706115521 80 148 1.0 3.0 0.00 0.00 0.00 86 991.8
20220706115020 79 173 0.0 2.0 0.00 0.00 0.00 87 991.8
20220706114521 79 173 0.0 3.0 0.00 0.00 0.00 88 991.7
20220706114023 78 173 1.0 3.0 0.00 0.00 0.00 88 991.7
20220706113521 78 209 0.0 2.0 0.00 0.00 0.00 88 991.7
20220706113020 78 209 0.0 3.0 0.00 0.00 0.00 88 991.8
20220706112521 78 149 0.0 2.0 0.00 0.00 0.00 88 991.8
20220706112020 78 155 0.0 3.0 0.00 0.00 0.00 88 991.7
20220706111520 78 154 0.0 3.0 0.00 0.00 0.00 88 991.8
20220706111120 78 156 0.0 3.0 0.00 0.00 0.00 89 991.7
20220706110519 77 128 0.0 4.0 0.00 0.00 0.00 90 991.6
20220706110017 77 140 1.0 4.0 0.00 0.00 0.00 91 991.6
20220706105517 76 161 0.0 4.0 0.00 0.00 0.00 92 991.5
20220706105017 76 180 0.0 1.0 0.00 0.00 0.00 92 991.4
20220706104516 76 180 0.0 0.0 0.00 0.00 0.00 92 991.5
20220706104016 76 180 0.0 0.0 0.00 0.00 0.00 92 991.4
20220706103516 76 180 0.0 0.0 0.00 0.00 0.00 92 991.4
20220706103016 76 180 0.0 1.0 0.00 0.00 0.00 92 991.4
20220706102516 76 180 0.0 1.0 0.00 0.00 0.00 91 991.3
20220706102016 76 180 0.0 0.0 0.00 0.00 0.00 91 991.3
20220706101515 76 180 0.0 0.0 0.00 0.00 0.00 91 991.3
20220706101015 76 180 0.0 0.0 0.00 0.00 0.00 91 991.3
20220706100514 76 180 0.0 0.0 0.00 0.00 0.00 90 991.2
20220706100014 76 180 0.0 0.0 0.00 0.00 0.00 90 991.2
20220706095513 77 180 0.0 0.0 0.00 0.00 0.00 90 991.2
20220706095013 77 180 0.0 0.0 0.00 0.00 0.00 90 991.2
20220706094513 77 180 0.0 0.0 0.00 0.00 0.00 90 991.3
20220706094013 77 180 0.0 1.0 0.00 0.00 0.00 90 991.3
20220706093513 77 180 0.0 1.0 0.00 0.00 0.00 90 991.3
20220706093022 77 180 0.0 0.0 0.00 0.00 0.00 90 991.2
20220706092513 77 180 0.0 0.0 0.00 0.00 0.00 90 991.2
20220706092012 77 180 0.0 0.0 0.00 0.00 0.00 90 991.2
20220706091514 77 180 0.0 0.0 0.00 0.00 0.00 90 991.2
20220706091012 77 180 0.0 0.0 0.00 0.00 0.00 90 991.2
20220706090512 77 180 0.0 1.0 0.00 0.00 0.00 90 991.2
20220706090012 77 180 0.0 1.0 0.00 0.00 0.00 90 991.2
20220706085510 77 180 0.0 1.0 0.00 0.00 0.00 91 991.2
20220706085011 77 180 0.0 0.0 0.00 0.00 0.00 91 991.1
20220706084511 77 180 0.0 0.0 0.00 0.00 0.00 91 991.1
20220706084010 77 180 0.0 0.0 0.00 0.00 0.00 91 991.2
20220706083513 77 180 0.0 1.0 0.00 0.00 0.00 92 991.2
20220706083014 77 180 0.0 1.0 0.00 0.00 0.00 92 991.3
20220706082510 76 180 0.0 0.0 0.00 0.00 0.00 92 991.2
20220706082010 76 180 0.0 0.0 0.00 0.00 0.00 92 991.2
20220706081510 76 180 0.0 0.0 0.00 0.00 0.00 92 991.3
20220706081009 76 180 0.0 0.0 0.00 0.00 0.00 91 991.4
20220706080510 76 180 0.0 0.0 0.00 0.00 0.00 91 991.4
20220706080009 76 180 0.0 0.0 0.00 0.00 0.00 91 991.4
20220706075509 76 180 0.0 0.0 0.00 0.00 0.00 91 991.4
20220706075009 76 180 0.0 0.0 0.00 0.00 0.00 91 991.4
20220706074509 77 180 0.0 0.0 0.00 0.00 0.00 91 991.4
20220706074009 77 180 0.0 0.0 0.00 0.00 0.00 90 991.4
20220706073508 77 180 0.0 0.0 0.00 0.00 0.00 90 991.3
20220706073014 77 180 0.0 0.0 0.00 0.00 0.00 90 991.4
20220706072510 77 180 0.0 0.0 0.00 0.00 0.00 90 991.4
20220706072008 77 180 0.0 0.0 0.00 0.00 0.00 90 991.3
20220706071513 77 180 0.0 0.0 0.00 0.00 0.00 89 991.4
20220706071008 77 180 0.0 0.0 0.00 0.00 0.00 89 991.4
20220706070511 77 180 0.0 0.0 0.00 0.00 0.00 89 991.4
20220706070005 77 180 0.0 0.0 0.00 0.00 0.00 89 991.4
20220706065504 77 180 0.0 0.0 0.00 0.00 0.00 88 991.5
20220706065004 77 180 0.0 0.0 0.00 0.00 0.00 88 991.4
20220706064503 78 180 0.0 0.0 0.00 0.00 0.00 88 991.5
20220706064003 78 180 0.0 0.0 0.00 0.00 0.00 87 991.4
20220706063501 78 180 0.0 0.0 0.00 0.00 0.00 87 991.4
20220706063004 78 180 0.0 0.0 0.00 0.00 0.00 87 991.4
20220706062500 78 180 0.0 0.0 0.00 0.00 0.00 86 991.4
20220706062002 78 180 0.0 0.0 0.00 0.00 0.00 86 991.4
20220706061600 78 180 0.0 0.0 0.00 0.00 0.00 86 991.3
20220706061059 79 180 0.0 0.0 0.00 0.00 0.00 85 991.4
20220706060559 79 180 0.0 0.0 0.00 0.00 0.00 85 991.2
20220706060128 79 180 0.0 0.0 0.00 0.00 0.00 84 991.2
20220706055600 79 180 0.0 0.0 0.00 0.00 0.00 84 991.3
20220706055058 80 180 0.0 0.0 0.00 0.00 0.00 84 991.2
20220706054556 80 180 0.0 0.0 0.00 0.00 0.00 83 991.1
20220706054056 80 180 0.0 0.0 0.00 0.00 0.00 83 991.1
20220706053556 80 180 0.0 0.0 0.00 0.00 0.00 83 991.1
20220706053105 80 180 0.0 1.0 0.00 0.00 0.00 83 991.2
20220706052556 80 180 0.0 1.0 0.00 0.00 0.00 83 991.0
20220706052055 80 180 0.0 0.0 0.00 0.00 0.00 82 991.0
20220706051556 81 180 0.0 0.0 0.00 0.00 0.00 82 990.9
20220706051055 81 180 0.0 0.0 0.00 0.00 0.00 81 990.9
20220706050555 81 180 0.0 0.0 0.00 0.00 0.00 80 990.9
20220706050055 81 180 0.0 1.0 0.00 0.00 0.00 80 991.0
20220706045554 81 180 0.0 1.0 0.00 0.00 0.00 80 991.0
20220706045053 82 180 0.0 0.0 0.00 0.00 0.00 80 991.0
20220706044553 82 180 0.0 0.0 0.00 0.00 0.00 79 991.1
20220706044052 82 180 0.0 0.0 0.00 0.00 0.00 79 991.2
20220706043551 81 180 0.0 0.0 0.00 0.00 0.00 80 991.2
20220706043050 81 180 0.0 1.0 0.00 0.00 0.00 80 991.3
20220706042552 81 180 0.0 1.0 0.00 0.00 0.00 81 991.3
20220706042047 80 180 0.0 2.0 0.00 0.00 0.00 81 991.4
20220706041553 80 180 0.0 2.0 0.00 0.00 0.00 82 991.4
20220706041045 79 164 0.0 0.0 0.00 0.00 0.00 82 991.5
20220706040548 79 164 0.0 0.0 0.00 0.00 0.00 82 991.4
20220706040043 79 164 0.0 0.0 0.00 0.00 0.00 82 991.4
20220706035543 79 164 0.0 0.0 0.00 0.00 0.00 83 991.5
20220706035043 79 164 0.0 0.0 0.00 0.00 0.00 82 991.5
20220706034543 79 164 0.0 0.0 0.00 0.00 0.00 83 991.5
20220706034043 79 164 0.0 0.0 0.00 0.00 0.00 84 991.5
20220706033542 79 164 0.0 1.0 0.00 0.00 0.00 83 991.5
20220706033045 79 164 0.0 1.0 0.00 0.00 0.00 84 991.5
20220706032544 80 164 0.0 0.0 0.00 0.00 0.00 83 991.5
20220706032042 80 164 0.0 1.0 0.00 0.00 0.00 83 991.5
20220706031543 80 164 0.0 1.0 0.00 0.00 0.00 83 991.5
20220706031043 80 164 0.0 0.0 0.00 0.00 0.00 81 991.5
20220706030542 81 164 0.0 0.0 0.00 0.00 0.00 80 991.3
20220706030047 81 164 0.0 0.0 0.00 0.00 0.00 80 991.3
20220706025545 81 164 0.0 0.0 0.00 0.00 0.00 80 991.3
20220706025041 81 164 0.0 0.0 0.00 0.00 0.00 80 991.3
20220706024541 81 164 0.0 0.0 0.00 0.00 0.00 79 991.2
20220706024041 81 164 0.0 0.0 0.00 0.00 0.00 79 991.2
20220706023541 82 164 0.0 0.0 0.00 0.00 0.00 78 991.2
20220706023041 82 164 0.0 0.0 0.00 0.00 0.00 78 990.8
20220706022541 82 164 0.0 0.0 0.00 0.00 0.00 77 990.8
20220706022041 83 164 0.0 0.0 0.00 0.00 0.00 77 990.9
20220706021541 83 164 0.0 0.0 0.00 0.00 0.00 76 990.6
20220706021042 83 164 0.0 0.0 0.00 0.00 0.00 75 990.6
20220706020542 84 164 0.0 0.0 0.00 0.00 0.00 74 990.7
20220706020042 84 164 0.0 0.0 0.00 0.00 0.00 74 990.4
20220706015540 84 164 0.0 0.0 0.00 0.00 0.00 73 990.4
20220706015040 85 164 0.0 0.0 0.00 0.00 0.00 73 990.3
20220706014540 85 164 0.0 0.0 0.00 0.00 0.00 73 990.2
20220706014039 85 164 0.0 0.0 0.00 0.00 0.00 73 990.1
20220706013542 86 164 0.0 0.0 0.00 0.00 0.00 72 990.0
20220706013044 86 164 0.0 0.0 0.00 0.00 0.00 73 990.0
20220706012540 86 164 0.0 0.0 0.00 0.00 0.00 73 990.0
20220706012041 86 164 0.0 0.0 0.00 0.00 0.00 74 990.0
20220706011537 87 164 0.0 0.0 0.00 0.00 0.00 74 990.1
20220706011041 87 164 0.0 2.0 0.00 0.00 0.00 75 990.2
20220706010537 88 164 0.0 2.0 0.00 0.00 0.00 73 990.3
20220706010037 88 145 0.0 0.0 0.00 0.00 0.00 72 990.4
20220706005540 88 145 0.0 1.0 0.00 0.00 0.00 69 990.4
20220706005038 88 145 0.0 1.0 0.00 0.00 0.00 69 990.5
20220706004536 89 145 0.0 0.0 0.00 0.00 0.00 70 990.5
20220706004035 89 145 0.0 0.0 0.00 0.00 0.00 69 990.6
20220706003534 89 145 0.0 0.0 0.00 0.00 0.00 67 990.5
20220706003034 90 145 0.0 0.0 0.00 0.00 0.00 67 990.6
20220706002534 90 145 0.0 0.0 0.00 0.00 0.00 66 990.5
20220706002033 90 145 0.0 0.0 0.00 0.00 0.00 65 990.6
20220706001533 91 145 0.0 0.0 0.00 0.00 0.00 64 990.6
20220706001033 91 145 0.0 0.0 0.00 0.00 0.00 65 990.6
20220706000533 92 145 0.0 0.0 0.00 0.00 0.00 65 990.6
20220706000032 92 145 0.0 1.0 0.00 0.00 0.00 64 990.6
20220705235531 92 145 0.0 1.0 0.00 0.00 0.00 63 990.7
20220705235031 93 145 0.0 0.0 0.00 0.00 0.00 63 990.7
20220705234531 93 145 0.0 0.0 0.00 0.00 0.00 61 990.7
20220705234030 93 145 0.0 0.0 0.00 0.00 0.00 60 990.8
20220705233531 93 145 0.0 1.0 0.00 0.00 0.00 59 990.8
20220705233035 94 145 0.0 2.0 0.00 0.00 0.00 58 990.8
20220705232529 94 145 0.0 2.0 0.00 0.00 0.00 59 991.0
20220705232029 94 144 0.0 2.0 0.00 0.00 0.00 60 990.9
20220705231529 94 144 0.0 2.0 0.00 0.00 0.00 59 991.2
20220705231029 94 135 0.0 4.0 0.00 0.00 0.00 58 991.2
20220705230529 94 134 1.0 4.0 0.00 0.00 0.00 55 991.1
20220705230033 94 132 1.0 3.0 0.00 0.00 0.00 54 991.1
20220705225527 95 250 0.0 3.0 0.00 0.00 0.00 56 991.2
20220705225027 94 267 0.0 2.0 0.00 0.00 0.00 57 991.1
20220705224536 94 267 0.0 3.0 0.00 0.00 0.00 58 991.1
20220705224027 95 267 0.0 3.0 0.00 0.00 0.00 57 991.1
20220705223527 94 267 1.0 3.0 0.00 0.00 0.00 56 991.1
20220705223027 94 305 0.0 2.0 0.00 0.00 0.00 60 991.1
20220705222525 94 304 0.0 2.0 0.00 0.00 0.00 57 991.2
20220705222025 95 304 0.0 2.0 0.00 0.00 0.00 56 991.2
20220705221526 95 304 0.0 4.0 0.00 0.00 0.00 55 991.3
20220705221028 95 305 0.0 4.0 0.00 0.00 0.00 56 991.4
20220705220527 95 280 0.0 3.0 0.00 0.00 0.00 56 991.5
20220705220024 95 168 0.0 2.0 0.00 0.00 0.00 57 991.6
20220705215523 94 131 0.0 6.0 0.00 0.00 0.00 56 991.7
20220705215024 94 131 0.0 6.0 0.00 0.00 0.00 58 991.7
20220705214525 94 112 0.0 3.0 0.00 0.00 0.00 54 991.6
20220705214023 96 262 0.0 3.0 0.00 0.00 0.00 56 991.7
20220705213523 95 262 1.0 3.0 0.00 0.00 0.00 52 991.6
20220705213022 95 258 0.0 3.0 0.00 0.00 0.00 54 991.8
20220705212522 96 288 0.0 3.0 0.00 0.00 0.00 56 991.7
20220705212021 95 200 0.0 4.0 0.00 0.00 0.00 58 991.7
20220705211527 94 140 0.0 2.0 0.00 0.00 0.00 61 991.6
20220705211020 95 134 0.0 3.0 0.00 0.00 0.00 55 991.6
20220705210520 95 283 1.0 4.0 0.00 0.00 0.00 58 991.6
20220705210019 94 250 2.0 4.0 0.00 0.00 0.00 56 991.5
20220705205518 94 248 0.0 4.0 0.00 0.00 0.00 62 991.5
20220705205020 92 236 0.0 3.0 0.00 0.00 0.00 63 991.5
20220705204519 92 235 1.0 3.0 0.00 0.00 0.00 63 991.5
20220705204019 93 236 0.0 4.0 0.00 0.00 0.00 58 991.5
20220705203518 94 236 0.0 4.0 0.00 0.00 0.00 57 991.6
20220705203023 94 135 1.0 4.0 0.00 0.00 0.00 56 991.7
20220705202517 94 220 0.0 4.0 0.00 0.00 0.00 58 991.7
20220705202017 94 244 1.0 4.0 0.00 0.00 0.00 57 991.7
20220705201525 94 230 1.0 5.0 0.00 0.00 0.00 58 991.7
20220705201020 94 264 1.0 5.0 0.00 0.00 0.00 60 991.7
20220705200516 94 138 2.0 6.0 0.00 0.00 0.00 59 991.8
20220705200017 94 226 0.0 5.0 0.00 0.00 0.00 58 991.8
20220705195516 94 121 1.0 4.0 0.00 0.00 0.00 59 991.8
20220705195013 94 128 1.0 4.0 0.00 0.00 0.00 61 991.9
20220705194513 94 211 2.0 4.0 0.00 0.00 0.00 58 991.9
20220705194013 94 110 0.0 5.0 0.00 0.00 0.00 58 991.9
20220705193514 94 219 2.0 7.0 0.00 0.00 0.00 58 992.0
20220705193012 94 202 3.0 7.0 0.00 0.00 0.00 57 992.0
20220705192516 94 224 0.0 4.0 0.00 0.00 0.00 60 992.2
20220705192010 93 150 1.0 8.0 0.00 0.00 0.00 59 992.3
20220705191516 93 232 1.0 8.0 0.00 0.00 0.00 58 992.3
20220705191011 93 312 1.0 4.0 0.00 0.00 0.00 62 992.4
20220705190510 93 304 1.0 4.0 0.00 0.00 0.00 61 992.5
20220705190008 94 234 1.0 4.0 0.00 0.00 0.00 57 992.6
20220705185507 93 228 0.0 7.0 0.00 0.00 0.00 56 992.6
20220705185006 93 284 3.0 7.0 0.00 0.00 0.00 57 992.8
20220705184506 93 238 3.0 9.0 0.00 0.00 0.00 58 992.8
20220705184004 93 279 2.0 9.0 0.00 0.00 0.00 57 992.9
20220705183503 93 223 2.0 9.0 0.00 0.00 0.00 57 993.0
20220705183007 93 311 2.0 9.0 0.00 0.00 0.00 56 993.0
20220705182503 93 275 1.0 7.0 0.00 0.00 0.00 59 993.1
20220705182005 93 42 2.0 5.0 0.00 0.00 0.00 57 993.2
20220705181503 93 250 2.0 5.0 0.00 0.00 0.00 60 993.3
20220705181100 92 129 1.0 4.0 0.00 0.00 0.00 59 993.2
20220705180600 92 130 0.0 4.0 0.00 0.00 0.00 61 993.3
20220705180107 92 149 1.0 5.0 0.00 0.00 0.00 61 993.3
20220705175559 92 240 0.0 9.0 0.00 0.00 0.00 59 993.4
20220705175056 92 215 3.0 9.0 0.00 0.00 0.00 58 993.4
20220705174555 92 218 4.0 8.0 0.00 0.00 0.00 59 993.4
20220705174055 92 289 3.0 7.0 0.00 0.00 0.00 59 993.6
20220705173557 92 127 2.0 6.0 0.00 0.00 0.00 60 993.7
20220705173056 92 255 3.0 6.0 0.00 0.00 0.00 62 993.8
20220705172553 91 252 1.0 7.0 0.00 0.00 0.00 61 993.9
20220705172054 92 227 2.0 7.0 0.00 0.00 0.00 58 994.0
20220705171555 91 259 2.0 4.0 0.00 0.00 0.00 65 994.0
20220705171052 91 159 1.0 7.0 0.00 0.00 0.00 61 994.1
20220705170555 92 268 2.0 7.0 0.00 0.00 0.00 64 994.1
20220705170058 91 226 4.0 8.0 0.00 0.00 0.00 61 994.0
20220705165554 91 202 2.0 7.0 0.00 0.00 0.00 60 994.1
20220705165050 91 317 2.0 8.0 0.00 0.00 0.00 59 994.2
20220705164549 91 257 2.0 8.0 0.00 0.00 0.00 59 994.2
20220705164052 91 317 2.0 7.0 0.00 0.00 0.00 63 994.3
20220705163551 91 242 1.0 10.0 0.00 0.00 0.00 65 994.3
20220705163051 91 292 2.0 10.0 0.00 0.00 0.00 62 994.3
20220705162547 91 252 2.0 9.0 0.00 0.00 0.00 64 994.4
20220705162049 91 188 1.0 9.0 0.00 0.00 0.00 64 994.5
20220705161547 90 242 0.0 9.0 0.00 0.00 0.00 67 994.3
20220705161045 90 240 3.0 9.0 0.00 0.00 0.00 66 994.5
20220705160545 90 280 1.0 7.0 0.00 0.00 0.00 65 994.5
20220705160043 90 234 3.0 9.0 0.00 0.00 0.00 67 994.4
20220705155543 90 236 1.0 9.0 0.00 0.00 0.00 70 994.5
20220705155042 90 229 2.0 7.0 0.00 0.00 0.00 66 994.3
20220705154541 90 277 1.0 10.0 0.00 0.00 0.00 70 994.4
20220705154041 89 253 4.0 9.0 0.00 0.00 0.00 67 994.3
20220705153545 89 228 1.0 9.0 0.00 0.00 0.00 68 994.3
20220705153040 89 254 4.0 9.0 0.00 0.00 0.00 68 994.3
20220705152539 89 248 1.0 8.0 0.00 0.00 0.00 69 994.3
20220705152038 89 265 3.0 8.0 0.00 0.00 0.00 69 994.2
20220705151538 89 211 3.0 7.0 0.00 0.00 0.00 69 994.1
20220705151039 88 225 2.0 7.0 0.00 0.00 0.00 71 994.1
20220705150537 88 214 2.0 10.0 0.00 0.00 0.00 71 994.1
20220705150035 88 290 4.0 10.0 0.00 0.00 0.00 69 994.1
20220705145538 88 290 3.0 10.0 0.00 0.00 0.00 71 994.1
20220705145034 88 290 3.0 9.0 0.00 0.00 0.00 71 994.1
20220705144533 88 238 3.0 9.0 0.00 0.00 0.00 71 994.2
20220705144032 87 229 2.0 8.0 0.00 0.00 0.00 74 994.2
20220705143533 87 238 1.0 8.0 0.00 0.00 0.00 75 994.1
20220705143035 87 229 2.0 6.0 0.00 0.00 0.00 74 994.1
20220705142531 86 238 1.0 8.0 0.00 0.00 0.00 74 994.1
20220705142033 86 298 3.0 8.0 0.00 0.00 0.00 74 994.2
20220705141529 86 226 2.0 4.0 0.00 0.00 0.00 75 994.2
20220705141028 86 232 1.0 4.0 0.00 0.00 0.00 75 994.3
20220705140527 86 223 1.0 3.0 0.00 0.00 0.00 77 994.3
20220705140027 85 239 1.0 7.0 0.00 0.00 0.00 78 994.4
20220705135526 85 223 3.0 7.0 0.00 0.00 0.00 77 994.4
20220705135024 85 234 1.0 5.0 0.00 0.00 0.00 77 994.4
20220705134530 85 235 2.0 5.0 0.00 0.00 0.00 77 994.6
20220705134023 84 246 1.0 4.0 0.00 0.00 0.00 78 994.7
20220705133523 84 238 0.0 4.0 0.00 0.00 0.00 79 994.5
20220705133026 84 226 1.0 4.0 0.00 0.00 0.00 78 994.6
20220705132521 84 246 1.0 4.0 0.00 0.00 0.00 79 994.6
20220705132021 84 247 2.0 5.0 0.00 0.00 0.00 78 994.6
20220705131519 83 246 1.0 5.0 0.00 0.00 0.00 80 994.5
20220705131022 83 131 1.0 6.0 0.00 0.00 0.00 80 994.5
20220705130518 83 131 2.0 4.0 0.00 0.00 0.00 80 994.5
20220705130016 82 260 1.0 4.0 0.00 0.00 0.00 81 994.6
20220705125519 82 153 1.0 5.0 0.00 0.00 0.00 81 994.6